FW3892 Weather Reports


time (UTC)temp
C
wind
direction
speed
KPH
gust
KPH
rain 1hr
cm
rain 24hr
cm
rain mn
cm
humidity
%
barometer
mb
20260505070002 9 185 0.0 1.6 0.00 0.00 0.00 84 1010.7
20260505064502 9 133 0.0 3.2 0.00 0.00 0.00 83 1010.8
20260505063139 9 263 0.0 3.2 0.00 0.00 0.00 83 1010.8
20260505061638 9 113 0.0 3.2 0.00 0.00 0.00 82 1010.9
20260505054559 10 62 0.0 1.6 0.00 0.00 0.00 79 1010.9
20260505053054 10 19 0.0 3.2 0.00 0.00 0.00 78 1010.9
20260505051611 10 113 0.0 3.2 0.00 0.00 0.00 77 1010.9
20260505041550 11 225 0.0 3.2 0.00 0.00 0.00 72 1011.2
20260505040045 11 5 0.0 1.6 0.00 0.00 0.00 70 1011.2
20260505034544 11 259 0.0 4.8 0.00 0.00 0.00 69 1011.1
20260505033043 11 120 0.0 3.2 0.00 0.00 0.00 68 1011.0
20260505031550 11 233 0.0 3.2 0.00 0.00 0.00 66 1011.0
20260505030043 11 206 0.0 3.2 0.00 0.00 0.00 65 1011.2
20260505024548 12 272 0.0 4.8 0.00 0.00 0.00 63 1011.3
20260505023041 12 102 0.0 4.8 0.00 0.00 0.00 62 1011.2
20260505021542 12 196 0.0 6.4 0.00 0.00 0.00 60 1011.3
20260505020040 12 304 0.0 4.8 0.00 0.00 0.00 58 1011.2
20260505014540 13 166 0.0 4.8 0.00 0.00 0.00 56 1011.1
20260505013036 13 164 0.0 3.2 0.00 0.00 0.00 53 1011.0
20260505011537 13 249 1.6 9.7 0.00 0.00 0.00 52 1010.8
20260505010037 14 237 1.6 6.4 0.00 0.00 0.00 50 1010.5
20260505004535 14 242 3.2 9.7 0.00 0.00 0.00 50 1010.2
20260505003035 14 325 1.6 11.3 0.00 0.00 0.00 49 1009.9
20260505001534 15 141 0.0 8.0 0.00 0.00 0.00 49 1009.4
20260505000012 15 240 0.0 4.8 0.00 0.00 0.00 46 1009.2
20260504234511 16 272 3.2 11.3 0.00 0.00 0.00 43 1008.9
20260504233011 17 44 0.0 8.0 0.00 0.00 0.00 40 1008.6
20260504231510 17 241 3.2 9.7 0.00 0.00 0.00 38 1008.4
20260504230010 18 333 3.2 16.1 0.00 0.00 0.00 39 1008.2
20260504224509 18 36 1.6 9.7 0.00 0.00 0.00 38 1007.8
20260504223009 18 224 1.6 19.3 0.00 0.00 0.00 35 1007.7
20260504221510 19 308 4.8 11.3 0.00 0.00 0.00 34 1007.6
20260504220008 20 93 3.2 9.7 0.00 0.00 0.00 32 1007.3
20260504214507 20 96 4.8 12.9 0.00 0.00 0.00 31 1007.6
20260504213006 20 162 3.2 11.3 0.00 0.00 0.00 29 1007.3
20260504211506 21 210 3.2 9.7 0.00 0.00 0.00 27 1007.2
20260504210006 21 235 4.8 16.1 0.00 0.00 0.00 26 1007.2
20260504204505 21 155 3.2 8.0 0.00 0.00 0.00 26 1007.2
20260504203004 21 231 4.8 19.3 0.00 0.00 0.00 25 1007.1
20260504201503 22 90 3.2 14.5 0.00 0.00 0.00 25 1007.2
20260504200003 22 226 6.4 22.5 0.00 0.00 0.00 24 1007.2
20260504194505 22 214 3.2 24.1 0.00 0.00 0.00 24 1007.2
20260504193005 23 239 1.6 9.7 0.00 0.00 0.00 23 1007.2
20260504191503 23 316 3.2 19.3 0.00 0.00 0.00 22 1007.2
20260504190129 23 203 3.2 14.5 0.00 0.00 0.00 22 1007.4
20260504184559 23 205 4.8 19.3 0.00 0.00 0.00 23 1007.5
20260504183059 23 129 4.8 12.9 0.00 0.00 0.00 21 1007.7
20260504181557 23 310 4.8 17.7 0.00 0.00 0.00 23 1007.8
20260504180054 22 258 4.8 14.5 0.00 0.00 0.00 22 1008.1
20260504174559 22 181 4.8 16.1 0.00 0.00 0.00 22 1008.1
20260504173057 22 65 3.2 12.9 0.00 0.00 0.00 22 1008.0
20260504171550 22 190 6.4 20.9 0.00 0.00 0.00 22 1008.1
20260504081547 5 153 0.0 0.0 0.00 0.00 0.00 71 1010.9